AO-07 1 07530U 74089B 22293.47946598 -.00000016 00000-0 18594-3 0 9991 2 07530 101.9211 273.8088 0012186 160.9947 316.5067 12.53657883193135 UO-11 1 14781U 84021B 22293.48061214 .00001108 00000-0 13946-3 0 9996 2 14781 97.6311 275.3116 0006729 271.6226 88.4218 14.83897694 58581 AO-16 1 20439U 90005D 22293.48342183 .00000140 00000-0 68181-4 0 9996 2 20439 98.8601 272.9143 0010675 180.0381 300.9901 14.32947218710573 LO-19 1 20442U 90005G 22293.49688855 .00000139 00000-0 67237-4 0 9999 2 20442 98.8110 260.3643 0012085 156.8541 203.3189 14.33100435711077 HUBBLE 1 20580U 90037B 22293.53885278 .00002931 00000-0 15995-3 0 9995 2 20580 28.4705 59.6901 0002257 313.8362 97.8730 15.11090819585158 MET-2/21 1 22782U 93055A 22293.44958100 .00000065 00000-0 45152-4 0 9994 2 22782 82.5455 275.0215 0022292 0.5010 118.5778 13.83862590471292 AO-27 1 22825U 93061C 22293.32415009 .00000082 00000-0 49353-4 0 9998 2 22825 98.8763 326.9385 0009247 52.6982 307.5042 14.30201313516003 IO-26 1 22826U 93061D 22293.38698833 .00000098 00000-0 55442-4 0 9996 2 22826 98.8708 326.8745 0009597 39.7449 320.4435 14.30550923516277 FO-29 1 24278U 96046B 22293.46984619 -.00000014 00000-0 24276-4 0 9994 2 24278 98.5152 299.9493 0349641 319.0389 38.4958 13.53122560292514 NOAA-15 1 25338U 98030A 22293.79241202 .00000155 00000-0 83066-4 0 9994 2 25338 98.6347 321.6350 0009339 294.6128 65.4079 14.26185025271135 GO-32 1 25397U 98043D 22293.44943178 .00000085 00000-0 56922-4 0 9999 2 25397 98.8326 244.3239 0002324 97.7408 262.4034 14.23780205261212 ISS 1 25544U 98067A 22293.85719174 .00011893 00000-0 21897-3 0 9992 2 25544 51.6427 73.9885 0005273 356.2038 101.1102 15.49608535364679 NO-44 1 26931U 01043C 22293.09337164 .00000159 00000-0 92459-4 0 9998 2 26931 67.0496 96.6713 0005405 260.5069 99.5421 14.30748579 99230 SO-50 1 27607U 02058C 22293.37774056 .00001183 00000-0 18142-3 0 9996 2 27607 64.5537 279.5619 0081614 270.6610 88.5141 14.76337683 66811 CO-55 1 27844U 03031E 22293.48998414 .00000291 00000-0 14967-3 0 9999 2 27844 98.6814 299.3052 0010960 99.1276 261.1142 14.22519010 1657 CO-57 1 27848U 03031J 22293.49222604 .00000239 00000-0 12763-3 0 9999 2 27848 98.6856 299.7991 0010775 112.2120 248.0202 14.22066757 1434 RS-22 1 27939U 03042A 22293.72523867 .00001118 00000-0 20566-3 0 9990 2 27939 98.2103 74.5555 0013088 167.8269 192.3260 14.67551121 19416 NOAA-18 1 28654U 05018A 22293.77446361 .00000206 00000-0 13487-3 0 9999 2 28654 98.9380 4.0441 0013761 341.1446 18.9215 14.12793376897764 CO-58 1 28895U 05043F 22293.35099834 .00001213 00000-0 23696-3 0 9999 2 28895 98.1239 62.9394 0017711 107.2557 253.0586 14.64581668905690 Falconsat-3 1 30776U 07006E 22293.33191252 .00076014 00000-0 71739-3 0 9998 2 30776 35.4269 156.4064 0004487 300.9179 59.1115 15.65819913869072 CO-65 1 32785U 08021C 22293.02211362 .00002074 00000-0 22005-3 0 9996 2 32785 97.6734 260.0534 0012635 173.0135 187.1261 14.90069142785035 AAUSAT2 1 32788U 08021F 22293.48811604 .00005532 00000-0 46552-3 0 9999 2 32788 97.5453 274.5313 0012590 68.8043 291.4524 14.98573106787254 DO-64 1 32789U 08021G 22293.37365440 .00013109 00000-0 66732-3 0 9991 2 32789 97.3322 315.3362 0007805 241.3796 118.6653 15.16908306790849 CO-66 1 32791U 08021J 22293.64163205 .00002793 00000-0 27094-3 0 9994 2 32791 97.6265 266.0224 0013962 127.6665 232.5824 14.93372124785951 RS-30 1 32953U 08025A 22293.85089108 .00000024 00000-0 10000-3 0 9994 2 32953 82.4981 105.9581 0019436 348.5241 11.5386 12.43114087653914 PRISM 1 33493U 09002B 22293.79602436 .00006186 00000-0 48786-3 0 9995 2 33493 98.2490 287.6695 0016021 121.9043 238.3740 15.01045724747788 NOAA-19 1 33591U 09005A 22293.79003022 .00000164 00000-0 11375-3 0 9997 2 33591 99.1361 330.4928 0013744 192.3562 167.7274 14.12625166706144 SRMSAT 1 37841U 11058D 22293.18906850 .00000427 00000-0 89611-4 0 9995 2 37841 19.9712 220.9255 0011713 274.2220 229.9674 14.10784346568872 HRBE 1 37855U 11061F 22293.78714671 .00010815 00000-0 44780-3 0 9997 2 37855 101.7206 119.5741 0146311 46.0673 315.2509 15.14988286600662 RS-40 1 38735U 12041C 22293.45714525 .00000048 00000-0 27218-3 0 9990 2 38735 82.4804 187.5643 0017935 96.7158 263.5965 12.42588133464040 ZACUBE-1 1 39417U 13066B 22293.43295017 .00002783 00000-0 34068-3 0 9993 2 39417 97.6523 259.4135 0057123 356.6412 3.4411 14.82827712481640 Delfi-N3xt 1 39428U 13066N 22293.48108051 .00002546 00000-0 39350-3 0 9997 2 39428 97.8183 222.5218 0114537 237.6508 121.3571 14.69828228476892 GOMX-1 1 39430U 13066Q 22293.77675945 .00002514 00000-0 45174-3 0 9999 2 39430 97.7971 193.7616 0149106 10.2314 350.1853 14.60500947474585 LO-74 1 39440U 13066AA 22293.43197917 .00002042 00000-0 27915-3 0 9990 2 39440 97.7404 245.8453 0079869 86.0581 274.9756 14.77405620478736 AO-73 1 39444U 13066AE 22293.62500754 .00003162 00000-0 37578-3 0 9992 2 39444 97.6399 262.0246 0055413 343.4327 16.5075 14.84021407480675 SPROUT 1 39770U 14029E 22293.76312415 .00012618 00000-0 12279-2 0 9990 2 39770 97.9547 51.6796 0008441 39.5626 320.6166 14.92650596456344 DTUSAT-2 1 40030U 14033W 22293.54032221 .00002553 00000-0 26706-3 0 9994 2 40030 97.9428 226.8724 0011799 10.4937 349.6525 14.90506939452270 EO-80 1 40032U 14033Y 22293.51480089 .00003045 00000-0 31744-3 0 9997 2 40032 97.9432 226.8616 0011779 12.0598 348.0900 14.90487067452243 HODOYOSHI-1 1 40299U 14070B 22293.79015516 .00007514 00000-0 27528-3 0 9992 2 40299 97.2293 358.2265 0013101 56.7181 12.6538 15.28209403442192 FIREBIRD FU3 1 40377U 15003B 22293.28645907 .00025715 00000-0 67940-3 0 9998 2 40377 99.0795 186.2947 0089584 322.1483 37.3477 15.34370195427525 FIREBIRD FU4 1 40378U 15003C 22293.30359360 .00027187 00000-0 71556-3 0 9990 2 40378 99.0806 186.5575 0089486 321.6281 37.8612 15.34479381427534 GRIFEX 1 40379U 15003D 22293.24410763 .00013637 00000-0 45027-3 0 9998 2 40379 99.0917 170.9086 0109852 8.7031 351.6072 15.25854433426630 XW-2A 1 40903U 15049E 22293.73910907 .00037822 00000-0 47337-3 0 9998 2 40903 97.1630 352.7942 0008336 24.5079 69.8233 15.59668350398743 XW-2C 1 40906U 15049H 22293.78781683 .00008261 00000-0 38118-3 0 9995 2 40906 97.4969 296.3237 0011535 284.8418 249.0865 15.20433881391953 XW-2D 1 40907U 15049J 22293.80754806 .00009599 00000-0 43155-3 0 9998 2 40907 97.4966 296.4465 0010478 276.5876 208.9642 15.21289962392011 LILACSAT-2 1 40908U 15049K 22293.83105503 .00004508 00000-0 23404-3 0 9996 2 40908 97.5225 293.2640 0013486 306.7195 175.8318 15.16557407391481 XW-2E 1 40909U 15049L 22293.76768628 .00014642 00000-0 57160-3 0 9998 2 40909 97.4656 301.2517 0009586 248.0838 198.5683 15.25967329392509 XW-2F 1 40910U 15049M 22293.81206194 .00014660 00000-0 58155-3 0 9996 2 40910 97.4745 300.4634 0010015 250.6198 234.5788 15.25426053392273 XW-2B 1 40911U 15049N 22293.78524552 .00009358 00000-0 42240-3 0 9990 2 40911 97.4940 296.9806 0010700 279.9050 252.4732 15.21158158391892 DCBB 1 40912U 15049P 22293.48983666 .00017211 00000-0 61429-3 0 9990 2 40912 97.4363 304.4922 0011107 209.8385 306.2227 15.28877212392839 TW-1A 1 40928U 15051D 22293.79311856 .00119340 00000-0 80892-3 0 9991 2 40928 97.0259 316.2655 0002538 245.1550 229.8299 15.74635115397845 IO-86 1 40931U 15052B 22293.65550776 .00001164 00000-0 72503-4 0 9992 2 40931 5.9969 355.8786 0012329 141.3792 218.7228 14.76893335381880 AO-85 1 40967U 15058D 22292.44125566 .00005505 00000-0 60024-3 0 5159 2 40967 64.7749 54.5698 0178301 159.5015 201.3274 14.77982239 78981 ATHENOXAT-1 1 41168U 15077C 22293.10177878 .00027106 00000-0 10277-2 0 9992 2 41168 14.9952 244.4823 0008742 189.3610 265.7080 15.24646981379337 ChubuSat-2 1 41338U 16012B 22293.43837524 .00002690 00000-0 19442-3 0 9993 2 41338 31.0037 307.8461 0013049 312.5634 47.3901 15.01863297366286 ChubuSat-3 1 41339U 16012C 22293.42600372 .00003118 00000-0 22616-3 0 9995 2 41339 31.0118 304.8328 0013150 320.5385 39.4286 15.01905148366281 Horyu-4 1 41340U 16012D 22293.30459863 .00004395 00000-0 30277-3 0 9991 2 41340 31.0043 281.3720 0012591 2.9155 357.1553 15.04144496366538 e-st@r-II 1 41459U 16025D 22293.73716571 .00022720 00000-0 91569-3 0 9998 2 41459 98.1946 108.5035 0137488 203.1319 156.3573 15.16487810356469 AAUSAT4 1 41460U 16025E 22293.84397087 .00037371 00000-0 12578-2 0 9999 2 41460 98.1854 116.1012 0113765 174.2612 301.6451 15.24598033357005 LO-87 1 41557U 16033B 22293.78333738 .00020457 00000-0 54643-3 0 9998 2 41557 97.3891 31.9539 0009484 291.2536 167.8505 15.38083224356624 NuSat2 1 41558U 16033C 22293.79733347 .00020964 00000-0 52649-3 0 9997 2 41558 97.4126 38.3891 0008918 277.4088 236.3730 15.39976732356918 Lapan A3 1 41603U 16040E 22293.45146095 .00002028 00000-0 94141-4 0 9992 2 41603 97.1955 324.9804 0014824 81.4055 25.7762 15.21020462351038 Pratham 1 41783U 16059A 22293.55316186 .00000474 00000-0 99668-4 0 9994 2 41783 97.9010 330.0245 0034340 137.0703 223.3189 14.63468474323927 TY-1 1 41844U 16066D 22293.79534116 .00018892 00000-0 57980-3 0 9994 2 41844 97.3879 305.4726 0011253 191.9661 342.5249 15.33727057330799 CAS-2T 1 41847U 16066G 22293.18155034 .00001381 00000-0 21631-3 0 9997 2 41847 98.5379 357.6523 0362803 196.5359 162.3741 14.38808034312287 EO-88 1 42017U 17008BX 22293.41264218 .00021605 00000-0 55857-3 0 9993 2 42017 97.2551 357.9438 0005238 146.4158 213.7421 15.39105773316260 CAS-4B 1 42759U 17034B 22293.61673110 .00006751 00000-0 38878-3 0 9991 2 42759 43.0187 2.3810 0010207 353.7487 155.8134 15.12889849295304 CAS-4A 1 42761U 17034D 22293.91298935 .00006903 00000-0 39619-3 0 9998 2 42761 43.0192 359.4406 0010876 355.5419 173.2148 15.12983870295350 NIUSat 1 42766U 17036B 22293.40346926 .00008928 00000-0 32341-3 0 9997 2 42766 97.1910 326.8413 0011356 237.8433 122.1707 15.28544929295877 Aalto 1 1 42775U 17036L 22293.32050981 .00007946 00000-0 29860-3 0 9992 2 42775 97.1863 326.4408 0010379 238.1549 121.8681 15.27376631295824 URSA MAIOR 1 42776U 17036M 22293.83891242 .00010429 00000-0 38222-3 0 9994 2 42776 97.1875 327.8078 0010119 234.0487 125.9815 15.28126490295948 Max Valier Sat 1 42778U 17036P 22293.34851519 .00009370 00000-0 33373-3 0 9990 2 42778 97.1930 330.2213 0008760 235.2224 124.8193 15.29110194295977 Pegasus 1 42784U 17036V 22293.35348410 .00012065 00000-0 39596-3 0 9997 2 42784 97.1867 331.3575 0008019 233.6584 126.3918 15.31706706296116 NUDATSat 1 42787U 17036Y 22293.59089776 .00033400 00000-0 86536-3 0 9995 2 42787 97.1879 336.7828 0007011 211.5134 148.5672 15.38941685296307 SUCHAI 1 1 42788U 17036Z 22293.05205523 .00017483 00000-0 52960-3 0 9994 2 42788 97.1869 333.0809 0007371 226.3816 133.6817 15.34190318296262 SKCUBE 1 42789U 17036AA 22293.05647547 .00015557 00000-0 48862-3 0 9997 2 42789 97.1868 332.3854 0007496 228.6851 131.3747 15.33061743296148 VZLUSAT 1 1 42790U 17036AB 22293.09393825 .00027068 00000-0 70974-3 0 9999 2 42790 97.1885 336.2295 0006575 213.4261 146.6571 15.38619437296378 VENTA 1 1 42791U 17036AC 22293.54074729 .00012761 00000-0 41380-3 0 9992 2 42791 97.1874 332.6144 0007308 228.2988 131.7630 15.32084010296193 Robusta 1B 1 42792U 17036AD 22293.35318435 .00015555 00000-0 47645-3 0 9991 2 42792 97.1864 333.3472 0007017 225.7761 134.2907 15.33863987296243 D-SAT 1 42794U 17036AF 22293.48504826 .00004017 00000-0 33673-3 0 9995 2 42794 97.4567 292.3633 0122612 27.2778 333.4811 14.93212336290133 TechnoSat 1 42829U 17042E 22293.56433004 .00001302 00000-0 13281-3 0 9996 2 42829 97.4060 140.3368 0012805 313.9366 46.0796 14.92175339286748 AO-91 1 43017U 17073E 22293.16123167 .00003168 00000-0 23680-3 0 9998 2 43017 97.6568 182.2113 0246607 138.8592 223.1508 14.82311717265589 PICSAT 1 43132U 18004X 22293.17449317 .00016356 00000-0 48409-3 0 9999 2 43132 97.3623 9.0653 0005987 271.0414 89.0144 15.34952585265518 AO-92 1 43137U 18004AC 22293.17200797 .00012691 00000-0 41330-3 0 9995 2 43137 97.3585 7.3199 0005982 280.0426 80.0141 15.31963583265429 TianYi 2 1 43155U 18008A 22293.77095350 .00010929 00000-0 55215-3 0 9991 2 43155 97.3386 348.1700 0017077 70.4276 24.5370 15.17116943262264 Zhou Enlai 1 43156U 18008B 22293.80516027 .00011974 00000-0 60773-3 0 9991 2 43156 97.3424 348.1204 0014298 71.8307 39.9782 15.16971810262199 TianYi 6 1 43158U 18008D 22293.40231704 .00010113 00000-0 53318-3 0 9996 2 43158 97.3377 345.4405 0014175 76.0704 296.4168 15.15672609262026 S-Net D 1 43186U 18014G 22293.53118139 .00002177 00000-0 18735-3 0 9999 2 43186 97.6449 196.8293 0009740 233.6469 126.3856 14.98377335257649 S-Net B 1 43187U 18014H 22293.46471226 .00002171 00000-0 18685-3 0 9999 2 43187 97.6445 196.7096 0009719 233.6224 126.4103 14.98374151257639 S-Net A 1 43188U 18014J 22293.46502235 .00002180 00000-0 18761-3 0 9990 2 43188 97.6449 196.7804 0009714 233.7432 126.2893 14.98374342257634 S-Net C 1 43189U 18014K 22293.53275189 .00002203 00000-0 18958-3 0 9998 2 43189 97.6444 196.7630 0009691 232.9127 127.1210 14.98370753256198 FMN 1 1 43192U 18015A 22293.85007300 .00056000 00000-0 11182-2 0 9991 2 43192 97.5493 83.0788 0010844 298.1951 207.4115 15.46586864262760 Shaonian Xing 1 43199U 18015H 22293.85189744 .00028061 00000-0 73032-3 0 9990 2 43199 97.5295 76.8705 0011810 315.3162 209.5019 15.38796409262693 SurfSat 1 43614U 18070B 22293.85654999 .00083301 00000-0 76821-3 0 9999 2 43614 93.0108 152.2698 0005357 214.9954 145.0964 15.67337877230613 CP-7 DAVE 1 43615U 18070C 22293.56365958 .00059289 00000-0 61524-3 0 9994 2 43615 93.0100 151.8332 0005848 226.3378 133.7405 15.64444589230517 CubeBel-1 1 43666U 18083E 22293.59049609 .00014202 00000-0 56151-3 0 9995 2 43666 97.4130 320.9708 0010587 247.9541 209.8936 15.25537937220540 Changshagaoxin 1 43669U 18083H 22293.77263108 .00012905 00000-0 53757-3 0 9997 2 43669 97.4079 316.7420 0007523 244.3636 226.2574 15.23830029220379 Ten-Koh 1 43677U 18084G 22293.35171552 .00001360 00000-0 14172-3 0 9993 2 43677 97.9813 64.6861 0014913 216.4357 143.5847 14.91448491216290 PO-101 1 43678U 18084H 22293.77231871 .00001367 00000-0 13925-3 0 9993 2 43678 97.9890 68.6542 0008613 227.1866 132.8564 14.92404712216544 IRVINE 01 1 43693U 18088D 22293.24772948 .00076168 00000-0 13636-2 0 9990 2 43693 85.0265 225.6515 0010099 42.4499 317.7537 15.49637105219455 QO-100 1 43700U 18090A 22293.27878513 .00000148 00000-0 00000-0 0 9994 2 43700 0.0155 245.3295 0002761 358.0578 271.5306 1.00273485 14288 Reaktor Hello World 1 43743U 18096AA 22293.20910665 .00015234 00000-0 41752-3 0 9999 2 43743 97.3445 12.7357 0013184 335.4207 24.6408 15.37305638217107 MinXSS-2 1 43758U 18099A 22293.18662522 .00003493 00000-0 29940-3 0 9990 2 43758 97.6109 358.0640 0014730 201.0793 158.9824 14.98095491211779 AO-95 1 43770U 18099N 22293.40934674 .00002934 00000-0 25912-3 0 9993 2 43770 97.6097 356.4702 0012955 210.3994 149.6478 14.97064128211700 RANGE-B 1 43772U 18099Q 22293.61267251 .00004254 00000-0 36569-3 0 9995 2 43772 97.6214 358.6565 0012843 194.4393 165.6465 14.97880970211766 RANGE-A 1 43773U 18099R 22293.43804560 .00002006 00000-0 18142-3 0 9996 2 43773 97.5994 355.1695 0012852 198.8196 161.2552 14.96481653211680 MOVE-II 1 43780U 18099Y 22293.18074052 .00004766 00000-0 39988-3 0 9997 2 43780 97.6109 357.7088 0012709 207.2541 152.8016 14.98764788211733 SNUSat 2 1 43782U 18099AA 22293.44406457 .00002658 00000-0 23454-3 0 9995 2 43782 97.6076 356.9991 0012084 196.4282 163.6551 14.97176346211739 SnugLite 1 43784U 18099AC 22293.46188277 .00003771 00000-0 32817-3 0 9996 2 43784 97.6045 356.6412 0013892 202.2451 157.8170 14.97454577211764 ITASat 1 1 43786U 18099AE 22293.12608245 .00003033 00000-0 26727-3 0 9997 2 43786 97.6104 357.1770 0014159 203.9963 156.0601 14.97115538211703 EAGLET 1 1 43790U 18099AJ 22293.47805740 .00002368 00000-0 20940-3 0 9990 2 43790 97.6111 358.0642 0012076 205.0562 155.0076 14.97201017211497 ESEO 1 43792U 18099AL 22293.39929096 .00001910 00000-0 17308-3 0 9990 2 43792 97.6051 357.0101 0012394 203.6324 156.4330 14.96459419211515 CSIM 1 43793U 18099AM 22293.16463104 .00003914 00000-0 32379-3 0 9990 2 43793 97.6135 358.7276 0011676 202.1818 157.8902 14.99429534211567 Astrocast 0.1 1 43798U 18099AS 22293.44526030 .00003986 00000-0 33765-3 0 9993 2 43798 97.6103 358.7114 0012095 185.5832 174.5257 14.98492771211824 JO-97 1 43803U 18099AX 22293.43182433 .00002711 00000-0 23554-3 0 9994 2 43803 97.6065 357.2747 0014039 204.6107 155.4447 14.97754583211776 Suomi 100 1 43804U 18099AY 22293.45904449 .00003571 00000-0 30971-3 0 9992 2 43804 97.6061 357.1943 0014130 201.3627 158.7007 14.97618844211781 Al Farabi 2 1 43805U 18099AZ 22293.85994179 .00005372 00000-0 45424-3 0 9996 2 43805 97.6076 358.2261 0014324 199.2014 160.8663 14.98390836211874 CHOMPTT 1 43855U 18104G 22293.55428870 .00008336 00000-0 28735-3 0 9994 2 43855 85.0342 327.6402 0016618 128.7819 231.4915 15.29690547213831 ISAT 1 43879U 18111D 22293.54904950 .00004338 00000-0 36451-3 0 9997 2 43879 97.6529 196.8680 0009954 255.6284 104.3834 14.98781349208409 UWE-4 1 43880U 18111E 22293.47390185 .00003550 00000-0 29838-3 0 9996 2 43880 97.6550 197.5733 0010096 256.1830 103.8269 14.98886110208424 Sparrow 1 43881U 18111F 22293.27678793 .00003865 00000-0 32274-3 0 9996 2 43881 97.6562 197.6577 0009998 252.7477 107.2652 14.99089771208404 Lume 1 1 43908U 18111AJ 22293.24529677 .00012045 00000-0 37906-3 0 9996 2 43908 97.1714 177.1762 0017081 355.9565 4.1536 15.32940603212491 FO-99 1 43937U 19003F 22293.63847501 .00015820 00000-0 48046-3 0 9992 2 43937 97.1207 322.2822 0020739 68.5448 291.8005 15.33938236209145 MYSat 1 1 44045U 18092F 22293.11711867 .00118846 00000-0 88641-3 0 9995 2 44045 51.6248 164.7557 0010316 203.1767 156.8767 15.71808130207347 AstroCast 0.2 1 44083U 19018F 22293.37691818 .00016690 00000-0 57656-3 0 9993 2 44083 97.3082 349.9757 0009864 49.1218 311.0876 15.29958806197563 AISTechSat 3 1 44103U 19018AB 22293.13720250 .00009597 00000-0 33420-3 0 9994 2 44103 97.2944 349.9797 0012617 58.2051 302.0417 15.29803291197694 AISat 1 1 44104U 19018AC 22293.48874190 .00009526 00000-0 25027-3 0 9992 2 44104 97.3896 17.2086 0050708 46.2398 314.3026 15.37489289198792 Prox-1 1 44339U 19036A 22293.80608860 .00004475 00000-0 95252-3 0 9992 2 44339 23.9995 121.7251 0010209 150.9873 209.1187 14.55856493176727 Oculus-ASR 1 44348U 19036K 22293.58060623 .00087259 -48488-5 60489-3 0 9999 2 44348 28.4994 39.8650 0183256 291.1361 66.9745 15.53420012183899 NO-104 1 44354U 19036R 22293.57330562 .00094029 -44431-5 59718-3 0 9997 2 44354 28.5236 21.9299 0172153 316.4291 42.2829 15.57122778184066 Move-IIb 1 44398U 19038N 22293.58077709 .00022877 00000-0 10010-2 0 9990 2 44398 97.6401 264.4040 0021713 60.4201 299.9187 15.21847447182047 SONATE 1 44400U 19038Q 22293.87195732 .00007616 00000-0 39866-3 0 9998 2 44400 97.6539 263.1206 0024763 62.8555 297.5194 15.15853497181922 BeeSat 9 1 44412U 19038AC 22293.84997044 .00011891 00000-0 56793-3 0 9992 2 44412 97.6505 264.3045 0021617 64.4693 295.8773 15.18987071181718 JAISAT-1 1 44419U 19038F 22293.46743098 .00011157 00000-0 52645-3 0 9992 2 44419 97.6503 264.8510 0020580 63.0343 297.2989 15.19444541182021 LightSail-2 1 44420U 19036AC 22293.55267398 .00265724 00000-0 16006-1 0 9996 2 44420 23.9950 19.3182 0015183 60.9831 299.2193 15.08338673175746 Taurus 1 1 44530U 19059C 22293.55563002 .00003986 00000-0 10925-2 0 9999 2 44530 98.5502 33.3250 0014534 102.7435 257.5317 14.47610929163948 Duchifat 3 1 44854U 19089C 22293.82527775 .00006318 00000-0 47840-3 0 9997 2 44854 36.9650 76.6637 0006154 167.6262 344.3731 15.01997692156788 OPS-SAT 1 44878U 19092F 22293.45681991 .00011439 00000-0 49779-3 0 9990 2 44878 97.4803 116.5282 0010805 264.5520 95.4484 15.22354333157195 TO-108 1 44881U 19093C 22293.77380775 .00001012 00000-0 13431-3 0 9998 2 44881 97.8840 11.1390 0015854 134.4265 225.8236 14.81881400153334 FloripaSat 1 1 44885U 19093G 22293.81431151 .00003346 00000-0 41123-3 0 9993 2 44885 97.8892 12.8216 0015107 139.7905 220.4387 14.83625055153433 RS-44 1 44909U 19096E 22293.36092377 .00000037 00000-0 10169-3 0 9996 2 44909 82.5198 147.3146 0217959 27.9159 333.3436 12.79716007131485 BY70-2 1 45857U 20042B 22293.79880059 .00011922 00000-0 15239-2 0 9998 2 45857 97.9478 9.5175 0010995 73.5662 286.6720 14.81498080124006 UPMSat 2 1 46276U 20061E 22293.50244942 .00004343 00000-0 20974-3 0 9991 2 46276 97.3799 1.4595 0003009 94.6785 265.4793 15.19168750117857 AmicalSat 1 46287U 20061R 22293.19293727 .00006027 00000-0 33564-3 0 9993 2 46287 97.4347 359.9611 0002402 171.4946 188.6327 15.13981059117339 SALSAT 1 46495U 20068K 22293.37863815 .00002999 00000-0 21468-3 0 9996 2 46495 97.7403 234.8137 0015363 208.5501 151.4886 15.05108071112978 BY70-3 1 46839U 20079N 22293.86965477 .00040958 00000-0 77066-3 0 9993 2 46839 97.1847 4.6908 0004724 224.2428 246.2370 15.48429959109602 CAPE 3 1 47309U 21002A 22293.44986046 .00014161 00000-0 52351-3 0 9999 2 47309 60.6810 253.6239 0040028 56.6931 303.7981 15.27265573 97527 AO-109 1 47311U 21002C 22293.40343563 .00011456 00000-0 42463-3 0 9996 2 47311 60.6839 251.2320 0036361 56.5605 303.8952 15.27484195 97531 MiTEE 1 1 47314U 21002F 22293.56247714 .00030545 00000-0 87986-3 0 9996 2 47314 60.6798 239.7786 0033333 50.9665 309.4387 15.35060795 97769 ExoCube 2 1 47319U 21002L 22293.43921344 .00012165 00000-0 45628-3 0 9990 2 47319 60.6818 252.4600 0037621 57.4776 302.9938 15.26998379 97480 UVSQ-SAT 1 47438U 21006AB 22293.39879575 .00006455 00000-0 32760-3 0 9997 2 47438 97.4233 349.8555 0011184 193.7008 166.3924 15.17204346 96210 YUSAT 1 1 47439U 21006AC 22293.38970521 .00008397 00000-0 41639-3 0 9992 2 47439 97.4238 350.0556 0010915 193.4128 166.6817 15.17924961 96229 SOMP 2b 1 47445U 21006AJ 22293.16303741 .00006762 00000-0 34729-3 0 9995 2 47445 97.4209 349.1784 0010764 198.7876 161.2961 15.16772096 96169 IDEASSat 1 47458U 21006AX 22293.42236495 .00006242 00000-0 32245-3 0 9993 2 47458 97.4295 350.0431 0010031 195.5217 164.5710 15.16605081 96199 CubeSX-Sirius-HSE 1 47951U 21022V 22293.91475903 .00006831 00000-0 43917-3 0 9994 2 47951 97.5142 190.7736 0022635 78.7440 344.5860 15.08513465 86908 CubeSX-HSE 1 47952U 21022W 22293.90969117 .00006338 00000-0 40721-3 0 9991 2 47952 97.5145 190.7964 0022729 77.2765 53.0827 15.08567083 86903 KSU-Cubesat 1 47954U 21022Y 22293.23073628 .00004718 00000-0 30167-3 0 9995 2 47954 97.5155 190.2905 0022222 79.1811 281.1917 15.08881648 86536 GRBAlpha 1 47959U 21022AD 22293.56544773 .00006445 00000-0 41366-3 0 9992 2 47959 97.5147 190.5082 0022526 78.2409 6.8396 15.08599100 85677 Orbicraft-Zorkiy 1 47960U 21022AE 22293.53273471 .00008106 00000-0 51593-3 0 9994 2 47960 97.5175 190.6718 0021974 79.6330 43.4054 15.08836252 86368 STECCO 1 47962U 21022AG 22293.75977279 .00010831 00000-0 64307-3 0 9992 2 47962 97.5140 191.9286 0017550 70.3721 15.1923 15.11362703 85788 DO-111 1 47963U 21022AH 22293.22733858 .00020729 00000-0 10229-2 0 9998 2 47963 97.5177 193.3563 0018241 65.8620 294.4519 15.17781134 85847 MO-110 1 47964U 21022AJ 22293.29224889 .00007864 00000-0 46233-3 0 9995 2 47964 97.5156 191.8124 0019972 69.3808 290.9562 15.11777841 85731 FEES 1 48082U 21022AL 22293.22577214 .00010806 00000-0 61408-3 0 9994 2 48082 97.5162 191.8195 0016230 67.1252 293.1690 15.12963463 85433 TUBIN 1 48900U 21059X 22293.58559117 .00006377 00000-0 34567-3 0 9998 2 48900 97.5699 62.0736 0010615 37.4555 19.5359 15.14892759 72859 IT-SPINS 1 49017U 21013G 22293.20629353 .00009824 00000-0 35481-3 0 9993 2 49017 51.5963 161.6908 0008888 163.4337 196.6935 15.29070716 72851 LEDSAT 1 49069U 21073D 22293.17232776 .00003984 00000-0 24962-3 0 9994 2 49069 97.5132 3.5871 0025558 224.7206 135.1963 15.09658607 64644 CUTE 1 49263U 21088D 22293.18149886 .00004385 00000-0 31949-3 0 9995 2 49263 97.5776 358.6008 0019464 6.2477 353.8987 15.04114494 58163 TeikyoSat 4 1 49396U 21102B 22293.30575746 .00002162 00000-0 17358-3 0 9990 2 49396 97.5335 347.4409 0015464 190.4537 169.6368 15.00999108 51776 Z-Sat 1 49399U 21102E 22293.81365319 .00001853 00000-0 14131-3 0 9994 2 49399 97.5243 349.0944 0023811 158.5077 201.7154 15.03002850 51917 KOSEN 1 1 49402U 21102H 22293.38518252 .00003089 00000-0 22574-3 0 9990 2 49402 97.5145 348.8872 0022515 153.4963 206.7420 15.04162770 51884 HO-113 1 50466U 21131B 22293.85977385 .00000268 00000-0 10228-3 0 9991 2 50466 98.5726 11.0050 0005585 130.0655 230.1022 14.38553261 42947 Tevel 1 50999U 22002R 22293.89635691 .00011077 00000-0 56722-3 0 9994 2 50999 97.4675 358.9929 0009951 351.1368 126.5233 15.16731377 42423 Grizu-263a 1 51025U 22002AT 22293.17501854 .00015456 00000-0 71359-3 0 9997 2 51025 97.4862 359.6214 0011264 355.9937 4.1205 15.20245579 42363 NO-116 1 51031U 22002AZ 22293.64622861 .00011687 00000-0 57075-3 0 9999 2 51031 97.4812 359.5913 0011960 355.0344 5.0770 15.18358426 42412 IRIS-A 1 51044U 22002BN 22293.12679946 .00005272 00000-0 28949-3 0 9993 2 51044 97.4698 357.7426 0008863 3.5532 356.5761 15.14521275 42277 DELFI-PQ 1 51074U 22002CU 22293.43918987 .00012605 00000-0 58490-3 0 9993 2 51074 97.4939 0.4864 0013095 25.1283 335.0586 15.20100570 42424 SO-115 1 51080U 22002DA 22291.98597948 .00010228 00000-0 49728-3 0 9991 2 51080 97.4950 358.7968 0013459 31.5057 328.6980 15.18534324 42186 SO-114 1 51081U 22002DB 22293.17236488 .00008184 00000-0 39828-3 0 9992 2 51081 97.4957 359.9408 0013773 26.9107 333.2839 15.18562275 42360 OreSat0 1 52017U 22026K 22293.79229534 .00007953 00000-0 40557-3 0 9994 2 52017 97.5086 292.1829 0025781 195.0182 165.0288 15.16728664 33174 Planetum 1 1 52738U 22057G 22293.75414261 .00006725 00000-0 38033-3 0 9999 2 52738 97.5221 46.5143 0009196 99.1226 261.1046 15.13364555 22372 Foresail-1 1 52766U 22057AL 22293.79367053 .00007491 00000-0 41059-3 0 9993 2 52766 97.5321 47.0249 0014620 82.5077 69.2291 15.14391182 22393 SNUGLITE 2 1 52899U 22065F 22293.78179108 .00001249 00000-0 27847-3 0 9994 2 52899 98.0367 80.9284 0007068 240.6422 119.4063 14.58498257 15968 CTIM 1 52950U 22074G 22292.55882560 .00020796 00000-0 79858-3 0 9996 2 52950 45.0264 244.0179 0003431 157.8431 202.2568 15.26173311 16676 GREENCUBE 1 53106U 22080B 22291.96147202 -.00000003 00000-0 00000-0 0 9998 2 53106 70.1713 43.5209 0008810 236.5247 123.4571 6.42557698 6253 AstroBioCubeSat 1 53107U 22080C 22293.43101512 -.00000003 00000-0 00000-0 0 9997 2 53107 70.1613 43.0743 0013208 229.6995 130.2509 6.42110617 6254 CELESTA 1 53111U 22080G 22255.16019017 -.00000003 00000-0 00000+0 0 9997 2 53111 70.1086 56.1818 0009300 227.1361 132.8517 6.42544045 3765 RS4S 1 53306U 98067TR 22293.75490205 .00082582 00000-0 10081-2 0 9994 2 53306 51.6381 72.0210 0005388 324.7165 35.3471 15.59718404 14177 RS3S 1 53308U 98067TT 22293.75714353 .00079509 00000-0 97867-3 0 9992 2 53308 51.6378 72.0329 0005401 321.8376 38.2234 15.59516528 14233 RS1S 1 53309U 98067TU 22293.74968872 .00083526 00000-0 10130-2 0 9990 2 53309 51.6374 71.9796 0005475 328.7804 31.2863 15.59884271 14187 RS5S 1 53310U 98067TV 22293.75640447 .00078865 00000-0 96978-3 0 9993 2 53310 51.6377 72.0285 0005121 328.6124 31.4563 15.59547708 14213 RS6S 1 53311U 98067TW 22293.80407233 .00087513 00000-0 10480-2 0 9997 2 53311 51.6375 71.5919 0005774 315.6943 44.3588 15.60193869 14249 RS9S 1 53312U 98067TX 22293.74786921 .00083650 00000-0 10146-2 0 9992 2 53312 51.6382 71.9707 0005479 331.7507 28.3188 15.59880916 14178 RS12S 1 53313U 98067TY 22293.80981403 .00089284 00000-0 10823-2 0 9993 2 53313 51.6384 71.6349 0004984 329.7640 30.3065 15.59870885 14233 JAGSAT 1 53771U 98067UJ 22293.79587542 .00098428 00000-0 12863-2 0 9991 2 53771 51.6396 73.0418 0004871 353.9788 6.1145 15.57837665 6917 /EX
